www.pogodaiklimat.ru

Погода и климат >> Архив погоды >> Россия >> Ленинградская область >> Белогорка


ПОГОДА в Белогорке

  • Прогноз погоды в Белогорке
  • Монитор погоды в Белогорке

АРХИВ ПОГОДЫ в Белогорке

Время (UTC), дата Ветер
(напр.,м/с)
 
Видим.   Явления Облачность Т
(С)
Тd
(С)
f
(%)
Тe
(С)
Тes
(С)
Комфортность P
(гПа)
Po
(гПа)
Тmin
(С)
Tmax
(С)
R
(мм)
R24
(мм)
S
(см)
03 20.05 В 1 10 км 9/0
[As trans]
+9.8 +9.1 95 +9 +10 1019.8 1008.9 +6.3
06 20.05 ЮВ 2 10 км 9/0
[Ac As]
+19.1 +9.0 52 +20 +23 1019.2 1008.7 +6.3
09 20.05 Ю 4 10 км 9/0
[Cs]
+23.7 +9.5 41 +25 +32 комфорт 1018.4 1008.1
12 20.05 ЮЗ 2 10 км 8/4 600 м
[Cu hum Ci fib]
+25.2 +9.6 37 +26 +32 жарко 1017.4 1007.1
15 20.05 ЮВ 2 10 км 8/4 600 м
[Cu hum Ci fib]
+25.5 +7.9 33 +26 +28 жарко 1015.9 1005.5
18 20.05 В 1 10 км 9/5 600 м
[Cu Sc Cs]
+19.7 +11.5 59 +22 +22 комфорт 1015.4 1005.0 +26.0
21 20.05 Ю 1 50 км 5/0
[Ac trans Ci fib]
+11.7 +10.3 91 +11 +11 1015.7 1005.0
00 21.05 штиль 0 50 км 9/0
[Ac As]
+11.2 +10.2 94 +10 +10 1015.4 1004.6
03 21.05 ЮЗ 1 10 км 9/0
[Ac As]
+12.0 +10.4 90 +12 +12 1015.0 1004.3 +10.3
06 21.05 Ю 3 10 км 9/0
[Ac As]
+19.7 +10.9 57 +21 +23 комфорт 1014.1 1003.7 +10.3
09 21.05 штиль 0 10 км 8/0
[Ac As]
+24.0 +12.8 50 +26 +34 жарко 1013.6 1003.3
12 21.05 ЮЗ 3 10 км 9/4 600 м
[Cu hum Ac As]
+24.8 +10.8 41 +26 +28 жарко 1012.4 1002.2
15 21.05 С 2
{11}
10 км гроза, ливневой дождь 9/6 300 м
[Cb cap As trans]
+20.1 +12.5 62 +23 +23 комфорт 1012.7 1002.3
18 21.05 В 1 10 км {ливн. осадки, гроза} 6/3 600 м
[Sc Ac trans]
+16.6 +13.7 83 +17 +18 1011.8 1001.3 +25.5 0.6
21 21.05 СВ 1 50 км 6/3 600 м
[Sc Ci fib]
+11.5 +11.2 98 +11 +11 1012.1 1001.4
00 22.05 штиль 0 50 км 3/3 600 м
[Sc]
+10.0 +9.9 99 +9 +9 1011.7 1000.9
03 22.05 СВ 2 4000 м дымка 6/0
[Ac trans]
+12.7 +12.5 99 +12 +12 1011.0 1000.3 +8.8 0.6
06 22.05 СВ 2 10 км 8/0
[Ac trans Ci fib]
+17.7 +13.3 75 +18 +23 1010.7 1000.2 +8.8
09 22.05 В 2 10 км 3/0
[Ci fib]
+21.5 +13.4 60 +24 +37 комфорт 1009.9 999.6
12 22.05 С 2 10 км 8/8 600 м
[Cu Sc]
+23.6 +12.5 50 +26 +28 жарко 1008.3 998.1
15 22.05 СВ 2 10 км 8/8 300 м
[Cb cap]
+23.3 +13.3 53 +26 +27 жарко 1007.3 997.1
18 22.05 Ю 1 10 км 9/5 300 м
[Cb cap Ci fib]
+17.8 +14.5 81 +19 +19 1007.0 996.6 +24.4
21 22.05 Ю 1 50 км 6/3 600 м
[Sc Ci fib]
+14.4 +13.8 96 +15 +15 1006.6 996.1
00 23.05 СВ 1 50 км 4/0
[Ci fib]
+13.2 +13.0 99 +13 +13 1006.1 995.5
03 23.05 СВ 3 10 км 9/9 500 м
[Cb cap]
+12.3 +11.4 94 +11 +11 1007.0 996.4 +11.2
06 23.05 СВ 6 10 км 10/10 360 м
[St]
+9.8 +8.7 93 +6 +6 1009.2 998.4 +9.7
09 23.05 СВ 4
{10}
10 км 10/10 450 м
[St]
+8.8 +6.2 84 +6 +6 1011.5 1000.7
12 23.05 СВ 3 10 км 10/10 450 м
[St]
+8.5 +5.4 81 +6 +6 1012.5 1001.7
15 23.05 СВ 4 10 км 8/0
[Ac trans Cs]
+10.3 +5.3 71 +8 +10 1012.1 1001.3
18 23.05 СВ 2 10 км 8/0
[Ac trans Ci fib]
+8.3 +5.1 80 +6 +7 1013.2 1002.3 +10.8
21 23.05 СВ 1 50 км 4/0
[Ac trans Ci fib]
+5.0 +3.2 88 +4 +4 1014.0 1003.0
00 24.05 СВ 1 50 км 6/0
[Ac trans Ci fib]
+3.8 +2.9 94 +2 +2 1013.8 1002.7
03 24.05 СВ 1 10 км 8/0
[Ac trans Ci fib]
+4.9 +3.6 91 +4 +4 1014.4 1003.4 +3.2
06 24.05 ЮВ 2 10 км 8/0
[Ac trans]
+8.5 +3.3 70 +7 +10 1013.8 1002.9 +3.2
09 24.05 ЮВ 3 10 км 9/0
[Ac As]
+11.8 +4.2 60 +10 +14 1012.8 1002.1
12 24.05 ЮВ 3 10 км 9/0
[Ac As]
+13.5 +5.4 58 +13 +16 1012.0 1001.4
15 24.05 ЮВ 1 10 км 9/0
[As trans]
+12.0 +8.9 81 +12 +14 1010.6 999.9
18 24.05 ЮВ 1 10 км {дождь} 9/0
[As trans]
+10.6 +9.0 90 +10 +10 1010.0 999.3 +14.7 2
21 24.05 штиль 0 50 км 9/0
[As trans]
+10.3 +9.5 95 +9 +9 1008.7 998.0
00 25.05 штиль 0 4000 м слаб. дождь {морось} 10/10 270 м
[St]
+10.5 +10.2 98 +10 +10 1007.8 997.1
03 25.05 ЮЗ 1 500 м туман {дождь} ?/? +11.0 +10.9 99 +11 +11 1006.1 995.4 +10.3 3
06 25.05 З 2 10 км {туман} 10/10 330 м
[St]
+13.1 +11.3 89 +12 +12 1005.2 994.6 +10.3 1
09 25.05 ЮЗ 3 10 км 9/4 600 м
[Cu med, cong Cs]
+16.7 +9.9 64 +17 +22 1004.0 993.5
12 25.05 З 4 10 км 9/9 420 м
[Cb cap]
+13.9 +9.4 74 +12 +13 1003.3 992.7
15 25.05 ЮЗ 5
{10}
10 км 8/8 420 м
[Cb cap]
+15.5 +9.0 65 +14 +15 1001.4 991.4
18 25.05 З 2
{11}
10 км 6/6 660 м
[Sc]
+11.3 +7.2 76 +10 +10 1002.2 991.5 +18.4
21 25.05 ЮЗ 2 50 км 4/4 600 м
[Sc]
+8.5 +7.6 94 +6 +6 1002.1 991.4
00 26.05 З 4 50 км 6/6 660 м
[Sc]
+10.1 +7.4 83 +7 +7 1001.8 991.1
03 26.05 З 4 10 км 9/9 660 м
[Sc]
+9.4 +7.3 87 +6 +7 1002.3 991.5 +6.6
06 26.05 ЮЗ 4 4000 м слаб. ливневой дождь 9/9 420 м
[Cb cap]
+8.8 +7.9 94 +6 +6 1003.3 992.6 +6.6 0.0
09 26.05 Ю 3 10 км {ливн. осадки} 9/9 450 м
[Cb cap]
+11.5 +7.6 77 +10 +11 1003.1 992.5
12 26.05 ЮЗ 4 10 км {ливн. осадки} 9/9 450 м
[Cb cap]
+16.5 +7.3 54 +16 +17 1001.7 991.3
15 26.05 ЮЗ 4 10 км 9/6 300 м
[Cb cap As trans]
+13.9 +7.0 63 +13 +13 1000.3 989.8 0.0
18 26.05 Ю 3
{12}
4000 м слаб. дождь 9/0
[As op]
+8.5 +7.7 95 +6 +6 999.9 989.2 +16.8 5
21 26.05 Ю 3 50 км {дождь} 8/0
[Ac trans Ci fib]
+8.0 +7.5 97 +5 +5 999.1 988.4
00 27.05 ЮЗ 4 50 км {дождь} 6/0
[Ac trans]
+7.8 +6.9 94 +4 +4 998.8 988.1

 

Местоположение метеостанции Белогорка (Ленинградская область, Россия): широта 59.35 долгота 30.13 высота над уровнем моря 89 м.

В архиве по умолчанию представлена погода в Белогорке за последнюю неделю. Архивные данные за месяц целиком и за предыдущие месяцы, начиная с января 2011 года, Вы можете получить, выбрав интересующий диапазон дат из раскрывающегося списка и нажав кнопку "Ввод!".


*Определитесь, кто Вы:
робот инопланетянин человек

Внимание! Время в таблицах - всемирное. Для получения местного времени необходимо прибавить поправку, которая равна 3 ч.

Смотрите также архив погоды в соседних городах и на ближайших метеорологических станциях:

Погода в Волосово (Ленинградская область, Россия) (37 км)
Погода в Любани (Ленинградская область, Россия) (62 км)
Погода в Ломоносове (город Санкт-Петербург, Россия) (66 км)
Погода в Санкт-Петербурге (город Санкт-Петербург, Россия) (70 км)
Погода в Кронштадте (город Санкт-Петербург, Россия) (73 км)
Погода в Шепелево (Ленинградская область, Россия) (73 км)
Погода в Воейково (город Санкт-Петербург, Россия) (74 км)
Погода в Лисьем Носу (город Санкт-Петербург, Россия) (75 км)
Погода в Сосновом Бору (Ленинградская область, Россия) (75 км)
Погода в Шлиссельбурге (Ленинградская область, Россия) (81 км)

Пояснения к столбцам:

Ветер - указаны скорость ветра в м/с - средняя за 10 мин, порывы в срок и между сроками (в фигурных скобках) и направление, откуда дует ветер: С - северный, СВ - северо-восточный, В - восточный, ЮВ - юго-восточный, Ю - южный, ЮЗ - юго-западный, З - западный, СЗ - северо-западный.
Видимость - горизонтальная дальность видимости в метрах или километрах. При видимости от 1 до 10 км при отсутствии осадков обычно наблюдается дымка, при ухудшении видимости до 1 км и менее - туман. В сухую погоду видимость может ухудшаться дымом, пылью или мглою.
Явления - указаны атмосферные явления, наблюдавшиеся в срок или в последний час перед сроком; фигурными скобками обозначены явления, наблюдавшиеся между сроками (за 1-3 часа до срока); квадратными скобками обозначены град или гололедные отложения с указанием их диаметра в мм.
Облачность - указаны через наклонную черту общая и нижняя облачность в баллах и высота нижней границы облаков в метрах; квадратными скобками обозначены формы облаков: Ci - перистые, Cs - перисто-слоистые, Cc - перисто-кучевые, Ac - высококучевые, As - высокослоистые, Sc - слоисто-кучевые, Ns - слоисто-дождевые, Cu - кучевые, Cb - кучево-дождевые. Подробнее классификацию облаков см. в Атласе облаков (PDF).
T - Температура воздуха - температура, измеренная на высоте 2 м над землей.
Td - Температура точки росы - температура, при понижении до которой содержащийся в воздухе водяной пар достигнет насыщения.
f - Относительная влажность воздуха - влажноcть воздуха, измеренная на высоте 2 м над землей.
Te - Эффективная температура - температура, которую ощущает одетый по сезону человек в тени. Характеристика душности погоды. При расчете учитывается влияние влажности воздуха и скорости ветра на теплоощущения человека.
Tes - Эффективная температура на солнце - температура, которую ощущает человек, с поправкой на солнечный нагрев. Характеристика знойности погоды. Зависит от высоты солнца над горизонтом, облачности и скорости ветра. Ночью, в пасмурную погоду, а также при ветре 12 м/с и более поправка равна нулю.
P - Атмосферное давление - приведенное к уровню моря атмосферное давление.
Po - Атмосферное давление - измеренное на уровне метеостанции атмосферное давление.
Tmin - Минимальная температура - минимум температуры воздуха на высоте 2 м над землей.
Tmax - Максимальная температура - максимум температуры воздуха на высоте 2 м над землей.
R - Количество осадков - Количество выпавших осадков за период времени, мм. При наведении курсора мыши на число - период времени, за который выпало указанное количество осадков.
R24 - Количество осадков - Количество выпавших осадков за 24 часа, мм.
S - Снежный покров - Высота снежного покрова, см. При наведении курсора мыши на число - состояние снежного покрова и степень покрытия местности в баллах.